Time,TemperatureF,DewpointF,PressureIn,WindDirection,WindDirectionDegrees,WindSpeedMPH,WindSpeedGustMPH,Humidity,HourlyPrecipIn,Conditions,Clouds,dailyrainin,SoftwareType,DateUTC
2013-04-25 00:00:00,66.0,64.0,30.10,SSW,210,14.0,18.0,95,-99.99,,,-99.99,,2013-04-25 04:00:00,
2013-04-25 00:22:00,66.0,64.0,30.10,SSW,210,14.0,18.0,95,-99.99,,,-99.99,,2013-04-25 04:22:00,
2013-04-25 00:32:00,66.0,64.0,30.10,SSW,210,14.0,18.0,95,-99.99,,,-99.99,,2013-04-25 04:32:00,
2013-04-25 00:42:00,66.0,64.0,30.10,SSW,210,14.0,18.0,95,-99.99,,,-99.99,,2013-04-25 04:42:00,
2013-04-25 00:52:00,66.0,64.0,30.10,SSW,210,14.0,18.0,95,-99.99,,,-99.99,,2013-04-25 04:52:00,
2013-04-25 01:00:00,66.0,65.0,30.10,SSW,210,11.0,15.0,97,-99.99,,,-99.99,,2013-04-25 05:00:00,
2013-04-25 01:21:00,66.0,65.0,30.10,SSW,210,11.0,15.0,97,-99.99,,,-99.99,,2013-04-25 05:21:00,
2013-04-25 01:31:00,66.0,65.0,30.10,SSW,210,11.0,15.0,97,-99.99,,,-99.99,,2013-04-25 05:31:00,
2013-04-25 01:42:00,66.0,65.0,30.10,SSW,210,11.0,15.0,97,-99.99,,,-99.99,,2013-04-25 05:42:00,
2013-04-25 01:51:00,66.0,65.0,30.10,SSW,210,11.0,15.0,97,-99.99,,,-99.99,,2013-04-25 05:51:00,
2013-04-25 02:00:00,65.0,65.0,30.08,SSW,210,11.0,14.0,99,-99.99,,,-99.99,,2013-04-25 06:00:00,
2013-04-25 02:22:00,65.0,65.0,30.08,SSW,210,11.0,14.0,99,-99.99,,,-99.99,,2013-04-25 06:22:00,
2013-04-25 02:31:00,65.0,65.0,30.08,SSW,210,11.0,14.0,99,-99.99,,,-99.99,,2013-04-25 06:31:00,
2013-04-25 02:41:00,65.0,65.0,30.08,SSW,210,11.0,14.0,99,-99.99,,,-99.99,,2013-04-25 06:41:00,
2013-04-25 02:52:00,65.0,65.0,30.08,SSW,210,11.0,14.0,99,-99.99,,,-99.99,,2013-04-25 06:52:00,
2013-04-25 03:00:00,65.0,65.0,30.07,SSW,210,10.0,13.0,99,-99.99,,,-99.99,,2013-04-25 07:00:00,
2013-04-25 03:21:00,65.0,65.0,30.07,SSW,210,10.0,13.0,99,-99.99,,,-99.99,,2013-04-25 07:21:00,
2013-04-25 03:31:00,65.0,65.0,30.07,SSW,210,10.0,13.0,99,-99.99,,,-99.99,,2013-04-25 07:31:00,
2013-04-25 03:41:00,65.0,65.0,30.07,SSW,210,10.0,13.0,99,-99.99,,,-99.99,,2013-04-25 07:41:00,
2013-04-25 03:52:00,65.0,65.0,30.07,SSW,210,10.0,13.0,99,-99.99,,,-99.99,,2013-04-25 07:52:00,
2013-04-25 04:00:00,65.0,65.0,30.08,SSW,210,10.0,14.0,98,-99.99,,,-99.99,,2013-04-25 08:00:00,
2013-04-25 04:21:00,65.0,65.0,30.08,SSW,210,10.0,14.0,98,-99.99,,,-99.99,,2013-04-25 08:21:00,
2013-04-25 04:31:00,65.0,65.0,30.08,SSW,210,10.0,14.0,98,-99.99,,,-99.99,,2013-04-25 08:31:00,
2013-04-25 04:41:00,65.0,65.0,30.08,SSW,210,10.0,14.0,98,-99.99,,,-99.99,,2013-04-25 08:41:00,
2013-04-25 04:51:00,65.0,65.0,30.08,SSW,210,10.0,14.0,98,-99.99,,,-99.99,,2013-04-25 08:51:00,
2013-04-25 05:00:00,64.0,64.0,30.09,SW,220,8.0,10.0,99,-99.99,,,-99.99,,2013-04-25 09:00:00,
2013-04-25 05:21:00,64.0,64.0,30.09,SW,220,8.0,10.0,99,-99.99,,,-99.99,,2013-04-25 09:21:00,
2013-04-25 05:32:00,64.0,64.0,30.09,SW,220,8.0,10.0,99,-99.99,,,-99.99,,2013-04-25 09:32:00,
2013-04-25 05:42:00,64.0,64.0,30.09,SW,220,8.0,10.0,99,-99.99,,,-99.99,,2013-04-25 09:42:00,
2013-04-25 05:52:00,64.0,64.0,30.09,SW,220,8.0,10.0,99,-99.99,,,-99.99,,2013-04-25 09:52:00,
2013-04-25 06:00:00,64.0,64.0,30.11,SW,230,8.0,10.0,99,-99.99,,,-99.99,,2013-04-25 10:00:00,
2013-04-25 06:22:00,64.0,64.0,30.11,SW,230,8.0,10.0,99,-99.99,,,-99.99,,2013-04-25 10:22:00,
2013-04-25 06:32:00,64.0,64.0,30.11,SW,230,8.0,10.0,99,-99.99,,,-99.99,,2013-04-25 10:32:00,
2013-04-25 06:41:00,64.0,64.0,30.11,SW,230,8.0,10.0,99,-99.99,,,-99.99,,2013-04-25 10:41:00,
2013-04-25 06:52:00,64.0,64.0,30.11,SW,230,8.0,10.0,99,-99.99,,,-99.99,,2013-04-25 10:52:00,
2013-04-25 07:00:00,65.0,65.0,30.14,WSW,240,9.0,13.0,100,-99.99,,,-99.99,,2013-04-25 11:00:00,
2013-04-25 07:21:00,65.0,65.0,30.14,WSW,240,9.0,13.0,100,-99.99,,,-99.99,,2013-04-25 11:21:00,
2013-04-25 07:32:00,65.0,65.0,30.14,WSW,240,9.0,13.0,100,-99.99,,,-99.99,,2013-04-25 11:32:00,
2013-04-25 07:42:00,65.0,65.0,30.14,WSW,240,9.0,13.0,100,-99.99,,,-99.99,,2013-04-25 11:42:00,
2013-04-25 07:51:00,65.0,65.0,30.14,WSW,240,9.0,13.0,100,-99.99,,,-99.99,,2013-04-25 11:51:00,
2013-04-25 08:00:00,64.0,64.0,30.15,WSW,240,8.0,10.0,100,-99.99,,,-99.99,,2013-04-25 12:00:00,
2013-04-25 08:21:00,64.0,64.0,30.15,WSW,240,8.0,10.0,100,-99.99,,,-99.99,,2013-04-25 12:21:00,
2013-04-25 08:31:00,64.0,64.0,30.15,WSW,240,8.0,10.0,100,-99.99,,,-99.99,,2013-04-25 12:31:00,
2013-04-25 08:41:00,64.0,64.0,30.15,WSW,240,8.0,10.0,100,-99.99,,,-99.99,,2013-04-25 12:41:00,
2013-04-25 08:51:00,64.0,64.0,30.15,WSW,240,8.0,10.0,100,-99.99,,,-99.99,,2013-04-25 12:51:00,
2013-04-25 09:00:00,63.0,63.0,30.16,WSW,240,6.0,7.0,100,-99.99,,,-99.99,,2013-04-25 13:00:00,
2013-04-25 09:21:00,63.0,63.0,30.16,WSW,240,6.0,7.0,100,-99.99,,,-99.99,,2013-04-25 13:21:00,
2013-04-25 09:31:00,63.0,63.0,30.16,WSW,240,6.0,7.0,100,-99.99,,,-99.99,,2013-04-25 13:31:00,
2013-04-25 09:42:00,63.0,63.0,30.16,WSW,240,6.0,7.0,100,-99.99,,,-99.99,,2013-04-25 13:42:00,
2013-04-25 09:52:00,63.0,63.0,30.16,WSW,240,6.0,7.0,100,-99.99,,,-99.99,,2013-04-25 13:52:00,
2013-04-25 10:00:00,64.0,64.0,30.17,West,270,7.0,8.0,100,-99.99,,,-99.99,,2013-04-25 14:00:00,
2013-04-25 10:21:00,64.0,64.0,30.17,West,270,7.0,8.0,100,-99.99,,,-99.99,,2013-04-25 14:21:00,
2013-04-25 10:32:00,64.0,64.0,30.17,West,270,7.0,8.0,100,-99.99,,,-99.99,,2013-04-25 14:32:00,
2013-04-25 10:41:00,64.0,64.0,30.17,West,270,7.0,8.0,100,-99.99,,,-99.99,,2013-04-25 14:41:00,
2013-04-25 10:51:00,64.0,64.0,30.17,West,270,7.0,8.0,100,-99.99,,,-99.99,,2013-04-25 14:51:00,
2013-04-25 11:00:00,65.0,64.0,30.17,NNW,330,8.0,10.0,98,-99.99,,,-99.99,,2013-04-25 15:00:00,
2013-04-25 11:21:00,65.0,64.0,30.17,NNW,330,8.0,10.0,98,-99.99,,,-99.99,,2013-04-25 15:21:00,
2013-04-25 11:32:00,65.0,64.0,30.17,NNW,330,8.0,10.0,98,-99.99,,,-99.99,,2013-04-25 15:32:00,
2013-04-25 11:42:00,65.0,64.0,30.17,NNW,330,8.0,10.0,98,-99.99,,,-99.99,,2013-04-25 15:42:00,
2013-04-25 11:52:00,65.0,64.0,30.17,NNW,330,8.0,10.0,98,-99.99,,,-99.99,,2013-04-25 15:52:00,
2013-04-25 12:00:00,58.0,53.0,30.19,NE,40,28.0,32.0,82,-99.99,,,-99.99,,2013-04-25 16:00:00,
2013-04-25 12:24:00,58.0,53.0,30.19,NE,40,28.0,32.0,82,-99.99,,,-99.99,,2013-04-25 16:24:00,
2013-04-25 12:32:00,58.0,53.0,30.19,NE,40,28.0,32.0,82,-99.99,,,-99.99,,2013-04-25 16:32:00,
2013-04-25 12:42:00,58.0,53.0,30.19,NE,40,28.0,32.0,82,-99.99,,,-99.99,,2013-04-25 16:42:00,
2013-04-25 12:52:00,58.0,53.0,30.19,NE,40,28.0,32.0,82,-99.99,,,-99.99,,2013-04-25 16:52:00,
2013-04-25 13:00:00,58.0,52.0,30.21,NE,50,24.0,28.0,82,-99.99,,,-99.99,,2013-04-25 17:00:00,
2013-04-25 13:22:00,58.0,52.0,30.21,NE,50,24.0,28.0,82,-99.99,,,-99.99,,2013-04-25 17:22:00,
2013-04-25 13:31:00,58.0,52.0,30.21,NE,50,24.0,28.0,82,-99.99,,,-99.99,,2013-04-25 17:31:00,
2013-04-25 13:41:00,58.0,52.0,30.21,NE,50,24.0,28.0,82,-99.99,,,-99.99,,2013-04-25 17:41:00,
2013-04-25 13:53:00,58.0,52.0,30.21,NE,50,24.0,28.0,82,-99.99,,,-99.99,,2013-04-25 17:53:00,
2013-04-25 14:00:00,56.0,51.0,30.22,NE,50,23.0,25.0,83,-99.99,,,-99.99,,2013-04-25 18:00:00,
2013-04-25 14:21:00,56.0,51.0,30.22,NE,50,23.0,25.0,83,-99.99,,,-99.99,,2013-04-25 18:21:00,
2013-04-25 14:31:00,56.0,51.0,30.22,NE,50,23.0,25.0,83,-99.99,,,-99.99,,2013-04-25 18:31:00,
2013-04-25 14:42:00,56.0,51.0,30.22,NE,50,23.0,25.0,83,-99.99,,,-99.99,,2013-04-25 18:42:00,
2013-04-25 14:52:00,56.0,51.0,30.22,NE,50,23.0,25.0,83,-99.99,,,-99.99,,2013-04-25 18:52:00,
2013-04-25 15:00:00,56.0,51.0,30.21,NE,40,23.0,25.0,83,-99.99,,,-99.99,,2013-04-25 19:00:00,
2013-04-25 15:21:00,56.0,51.0,30.21,NE,40,23.0,25.0,83,-99.99,,,-99.99,,2013-04-25 19:21:00,
2013-04-25 15:31:00,56.0,51.0,30.21,NE,40,23.0,25.0,83,-99.99,,,-99.99,,2013-04-25 19:31:00,
2013-04-25 15:41:00,56.0,51.0,30.21,NE,40,23.0,25.0,83,-99.99,,,-99.99,,2013-04-25 19:41:00,
2013-04-25 15:52:00,56.0,51.0,30.21,NE,40,23.0,25.0,83,-99.99,,,-99.99,,2013-04-25 19:52:00,
2013-04-25 16:00:00,55.0,49.0,30.21,NE,50,26.0,29.0,79,-99.99,,,-99.99,,2013-04-25 20:00:00,
2013-04-25 16:21:00,55.0,49.0,30.21,NE,50,26.0,29.0,79,-99.99,,,-99.99,,2013-04-25 20:21:00,
2013-04-25 16:31:00,55.0,49.0,30.21,NE,50,26.0,29.0,79,-99.99,,,-99.99,,2013-04-25 20:31:00,
2013-04-25 16:42:00,55.0,49.0,30.21,NE,50,26.0,29.0,79,-99.99,,,-99.99,,2013-04-25 20:42:00,
2013-04-25 16:51:00,55.0,49.0,30.21,NE,50,26.0,29.0,79,-99.99,,,-99.99,,2013-04-25 20:51:00,
2013-04-25 17:00:00,56.0,50.0,30.22,NE,40,21.0,24.0,82,-99.99,,,-99.99,,2013-04-25 21:00:00,
2013-04-25 17:21:00,56.0,50.0,30.22,NE,40,21.0,24.0,82,-99.99,,,-99.99,,2013-04-25 21:21:00,
2013-04-25 17:32:00,56.0,50.0,30.22,NE,40,21.0,24.0,82,-99.99,,,-99.99,,2013-04-25 21:32:00,
2013-04-25 17:42:00,56.0,50.0,30.22,NE,40,21.0,24.0,82,-99.99,,,-99.99,,2013-04-25 21:42:00,
2013-04-25 17:52:00,56.0,50.0,30.22,NE,40,21.0,24.0,82,-99.99,,,-99.99,,2013-04-25 21:52:00,
2013-04-25 18:00:00,55.0,49.0,30.23,NE,50,24.0,28.0,81,-99.99,,,-99.99,,2013-04-25 22:00:00,
2013-04-25 18:22:00,55.0,49.0,30.23,NE,50,24.0,28.0,81,-99.99,,,-99.99,,2013-04-25 22:22:00,
2013-04-25 18:32:00,55.0,49.0,30.23,NE,50,24.0,28.0,81,-99.99,,,-99.99,,2013-04-25 22:32:00,
2013-04-25 18:42:00,55.0,49.0,30.23,NE,50,24.0,28.0,81,-99.99,,,-99.99,,2013-04-25 22:42:00,
2013-04-25 18:52:00,55.0,49.0,30.23,NE,50,24.0,28.0,81,-99.99,,,-99.99,,2013-04-25 22:52:00,
2013-04-25 19:00:00,55.0,48.0,30.21,ENE,60,24.0,28.0,75,-99.99,,,-99.99,,2013-04-25 23:00:00,
2013-04-25 19:21:00,55.0,48.0,30.21,ENE,60,24.0,28.0,75,-99.99,,,-99.99,,2013-04-25 23:21:00,
2013-04-25 19:32:00,55.0,48.0,30.21,ENE,60,24.0,28.0,75,-99.99,,,-99.99,,2013-04-25 23:32:00,
2013-04-25 19:41:00,55.0,48.0,30.21,ENE,60,24.0,28.0,75,-99.99,,,-99.99,,2013-04-25 23:41:00,
2013-04-25 19:52:00,55.0,48.0,30.21,ENE,60,24.0,28.0,75,-99.99,,,-99.99,,2013-04-25 23:52:00,
2013-04-25 20:00:00,56.0,50.0,30.23,NE,50,21.0,22.0,80,-99.99,,,-99.99,,2013-04-26 00:00:00,
2013-04-25 20:21:00,56.0,50.0,30.23,NE,50,21.0,22.0,80,-99.99,,,-99.99,,2013-04-26 00:21:00,
2013-04-25 20:31:00,56.0,50.0,30.23,NE,50,21.0,22.0,80,-99.99,,,-99.99,,2013-04-26 00:31:00,
2013-04-25 20:41:00,56.0,50.0,30.23,NE,50,21.0,22.0,80,-99.99,,,-99.99,,2013-04-26 00:41:00,
2013-04-25 20:51:00,56.0,50.0,30.23,NE,50,21.0,22.0,80,-99.99,,,-99.99,,2013-04-26 00:51:00,
2013-04-25 21:00:00,55.0,50.0,30.24,NNE,30,18.0,22.0,83,-99.99,,,-99.99,,2013-04-26 01:00:00,
2013-04-25 21:21:00,55.0,50.0,30.24,NNE,30,18.0,22.0,83,-99.99,,,-99.99,,2013-04-26 01:21:00,
2013-04-25 21:31:00,55.0,50.0,30.24,NNE,30,18.0,22.0,83,-99.99,,,-99.99,,2013-04-26 01:31:00,
2013-04-25 21:41:00,55.0,50.0,30.24,NNE,30,18.0,22.0,83,-99.99,,,-99.99,,2013-04-26 01:41:00,
2013-04-25 21:52:00,55.0,50.0,30.24,NNE,30,18.0,22.0,83,-99.99,,,-99.99,,2013-04-26 01:52:00,
2013-04-25 22:00:00,56.0,52.0,30.26,NE,40,16.0,21.0,87,-99.99,,,-99.99,,2013-04-26 02:00:00,
2013-04-25 22:21:00,56.0,52.0,30.26,NE,40,16.0,21.0,87,-99.99,,,-99.99,,2013-04-26 02:21:00,
2013-04-25 22:31:00,56.0,52.0,30.26,NE,40,16.0,21.0,87,-99.99,,,-99.99,,2013-04-26 02:31:00,
2013-04-25 22:41:00,56.0,52.0,30.26,NE,40,16.0,21.0,87,-99.99,,,-99.99,,2013-04-26 02:41:00,
2013-04-25 22:51:00,56.0,52.0,30.26,NE,40,16.0,21.0,87,-99.99,,,-99.99,,2013-04-26 02:51:00,
2013-04-25 23:00:00,56.0,50.0,30.27,NNE,30,16.0,18.0,80,-99.99,,,-99.99,,2013-04-26 03:00:00,
2013-04-25 23:21:00,56.0,50.0,30.27,NNE,30,16.0,18.0,80,-99.99,,,-99.99,,2013-04-26 03:21:00,
2013-04-25 23:32:00,56.0,50.0,30.27,NNE,30,16.0,18.0,80,-99.99,,,-99.99,,2013-04-26 03:32:00,
2013-04-25 23:43:00,56.0,50.0,30.27,NNE,30,16.0,18.0,80,-99.99,,,-99.99,,2013-04-26 03:43:00,
2013-04-25 23:52:00,56.0,50.0,30.27,NNE,30,16.0,18.0,80,-99.99,,,-99.99,,2013-04-26 03:52:00,